Time,TemperatureF,DewpointF,PressureIn,WindDirection,WindDirectionDegrees,WindSpeedMPH,WindSpeedGustMPH,Humidity,HourlyPrecipIn,Conditions,Clouds,dailyrainin,SoftwareType,DateUTC
2013-05-30 00:00:00,67.6,64.2,30.14,North,8,0.0,0.0,89,0.00,,,0.00,Wunderground v.1.13,2013-05-30 04:00:00,
2013-05-30 00:02:00,67.6,63.9,30.13,North,8,0.0,0.0,88,0.00,,,0.00,Wunderground v.1.13,2013-05-30 04:02:00,
2013-05-30 00:04:00,67.6,63.9,30.13,North,8,0.0,0.0,88,0.00,,,0.00,Wunderground v.1.13,2013-05-30 04:04:00,
2013-05-30 00:08:00,67.8,64.1,30.13,North,8,0.0,0.0,88,0.00,,,0.00,Wunderground v.1.13,2013-05-30 04:08:00,
2013-05-30 00:10:00,67.8,64.1,30.13,North,8,0.0,0.0,88,0.00,,,0.00,Wunderground v.1.13,2013-05-30 04:10:00,
2013-05-30 00:16:00,67.8,63.8,30.13,North,8,0.0,0.0,87,0.00,,,0.00,Wunderground v.1.13,2013-05-30 04:16:00,
2013-05-30 00:22:00,67.9,63.9,30.13,North,8,0.0,0.0,87,0.00,,,0.00,Wunderground v.1.13,2013-05-30 04:22:00,
2013-05-30 00:28:00,68.1,63.8,30.13,North,8,0.0,0.0,86,0.00,,,0.00,Wunderground v.1.13,2013-05-30 04:28:00,
2013-05-30 00:34:00,68.3,63.6,30.13,North,8,0.0,0.0,85,0.00,,,0.00,Wunderground v.1.13,2013-05-30 04:34:00,
2013-05-30 00:40:00,68.4,63.7,30.13,North,8,0.0,0.0,85,0.00,,,0.00,Wunderground v.1.13,2013-05-30 04:40:00,
2013-05-30 00:46:00,68.6,63.6,30.13,North,8,0.0,0.0,84,0.00,,,0.00,Wunderground v.1.13,2013-05-30 04:46:00,
2013-05-30 00:48:00,68.6,63.6,30.13,North,8,0.0,0.0,84,0.00,,,0.00,Wunderground v.1.13,2013-05-30 04:48:00,
2013-05-30 00:54:00,68.8,63.4,30.13,North,8,0.0,0.0,83,0.00,,,0.00,Wunderground v.1.13,2013-05-30 04:54:00,
2013-05-30 01:00:00,68.9,63.5,30.13,North,8,0.0,0.0,83,0.00,,,0.00,Wunderground v.1.13,2013-05-30 05:00:00,
2013-05-30 01:06:00,68.9,63.2,30.13,North,8,0.0,0.0,82,0.00,,,0.00,Wunderground v.1.13,2013-05-30 05:06:00,
2013-05-30 01:12:00,69.1,63.4,30.13,North,8,0.0,0.0,82,0.00,,,0.00,Wunderground v.1.13,2013-05-30 05:12:00,
2013-05-30 01:18:00,69.1,63.4,30.14,North,8,0.0,0.0,82,0.00,,,0.00,Wunderground v.1.13,2013-05-30 05:18:00,
2013-05-30 01:24:00,69.1,63.4,30.14,North,8,0.0,0.0,82,0.00,,,0.00,Wunderground v.1.13,2013-05-30 05:24:00,
2013-05-30 01:30:00,69.1,63.4,30.14,North,8,0.0,0.0,82,0.00,,,0.00,Wunderground v.1.13,2013-05-30 05:30:00,
2013-05-30 01:36:00,69.1,63.4,30.14,North,7,0.0,0.0,82,0.00,,,0.00,Wunderground v.1.13,2013-05-30 05:36:00,
2013-05-30 01:42:00,69.1,63.4,30.14,North,8,0.0,0.0,82,0.00,,,0.00,Wunderground v.1.13,2013-05-30 05:42:00,
2013-05-30 01:48:00,69.1,63.4,30.15,North,8,0.0,0.0,82,0.00,,,0.00,Wunderground v.1.13,2013-05-30 05:48:00,
2013-05-30 01:54:00,68.9,63.2,30.15,North,8,0.0,0.0,82,0.00,,,0.00,Wunderground v.1.13,2013-05-30 05:54:00,
2013-05-30 02:00:00,68.8,63.1,30.15,North,8,0.0,0.0,82,0.00,,,0.00,Wunderground v.1.13,2013-05-30 06:00:00,
2013-05-30 02:06:00,68.8,63.1,30.14,North,8,0.0,0.0,82,0.00,,,0.00,Wunderground v.1.13,2013-05-30 06:06:00,
2013-05-30 02:12:00,68.6,62.9,30.14,North,8,0.0,0.0,82,0.00,,,0.00,Wunderground v.1.13,2013-05-30 06:12:00,
2013-05-30 02:18:00,68.6,62.9,30.14,North,8,0.0,0.0,82,0.00,,,0.00,Wunderground v.1.13,2013-05-30 06:18:00,
2013-05-30 02:24:00,68.4,62.7,30.14,North,8,0.0,0.0,82,0.00,,,0.00,Wunderground v.1.13,2013-05-30 06:24:00,
2013-05-30 02:30:00,68.4,63.0,30.14,North,8,0.0,0.0,83,0.00,,,0.00,Wunderground v.1.13,2013-05-30 06:30:00,
2013-05-30 02:36:00,68.3,62.9,30.14,North,8,0.0,0.0,83,0.00,,,0.00,Wunderground v.1.13,2013-05-30 06:36:00,
2013-05-30 02:42:00,68.1,62.7,30.14,North,8,0.0,0.0,83,0.00,,,0.00,Wunderground v.1.13,2013-05-30 06:42:00,
2013-05-30 02:48:00,68.1,62.7,30.14,North,8,0.0,0.0,83,0.00,,,0.00,Wunderground v.1.13,2013-05-30 06:48:00,
2013-05-30 02:54:00,67.9,62.5,30.14,North,8,0.0,0.0,83,0.00,,,0.00,Wunderground v.1.13,2013-05-30 06:54:00,
2013-05-30 03:00:00,67.8,62.8,30.14,North,8,0.0,0.0,84,0.00,,,0.00,Wunderground v.1.13,2013-05-30 07:00:00,
2013-05-30 03:06:00,67.8,62.8,30.14,North,8,0.0,0.0,84,0.00,,,0.00,Wunderground v.1.13,2013-05-30 07:06:00,
2013-05-30 03:12:00,67.6,62.6,30.14,North,8,0.0,0.0,84,0.00,,,0.00,Wunderground v.1.13,2013-05-30 07:12:00,
2013-05-30 03:18:00,67.4,62.7,30.14,North,8,0.0,0.0,85,0.00,,,0.00,Wunderground v.1.13,2013-05-30 07:18:00,
2013-05-30 03:24:00,67.3,62.6,30.14,North,8,0.0,0.0,85,0.00,,,0.00,Wunderground v.1.13,2013-05-30 07:24:00,
2013-05-30 03:30:00,67.3,62.6,30.14,North,8,0.0,0.0,85,0.00,,,0.00,Wunderground v.1.13,2013-05-30 07:30:00,
2013-05-30 03:36:00,67.1,62.8,30.14,North,8,0.0,0.0,86,0.00,,,0.00,Wunderground v.1.13,2013-05-30 07:36:00,
2013-05-30 03:42:00,66.9,62.6,30.14,North,8,0.0,0.0,86,0.00,,,0.00,Wunderground v.1.13,2013-05-30 07:42:00,
2013-05-30 03:48:00,66.9,62.6,30.15,North,8,0.0,0.0,86,0.00,,,0.00,Wunderground v.1.13,2013-05-30 07:48:00,
2013-05-30 03:54:00,66.8,62.5,30.15,North,8,0.0,0.0,86,0.00,,,0.00,Wunderground v.1.13,2013-05-30 07:54:00,
2013-05-30 04:00:00,66.6,62.6,30.15,North,8,0.0,0.0,87,0.00,,,0.00,Wunderground v.1.13,2013-05-30 08:00:00,
2013-05-30 04:06:00,66.4,62.4,30.14,North,8,0.0,0.0,87,0.00,,,0.00,Wunderground v.1.13,2013-05-30 08:06:00,
2013-05-30 04:12:00,66.4,62.4,30.14,North,8,0.0,0.0,87,0.00,,,0.00,Wunderground v.1.13,2013-05-30 08:12:00,
2013-05-30 04:18:00,66.3,62.3,30.15,North,8,0.0,0.0,87,0.00,,,0.00,Wunderground v.1.13,2013-05-30 08:18:00,
2013-05-30 04:24:00,66.1,62.1,30.15,North,8,0.0,0.0,87,0.00,,,0.00,Wunderground v.1.13,2013-05-30 08:24:00,
2013-05-30 04:30:00,66.1,62.1,30.15,North,8,0.0,0.0,87,0.00,,,0.00,Wunderground v.1.13,2013-05-30 08:30:00,
2013-05-30 04:36:00,66.0,62.0,30.15,North,8,0.0,0.0,87,0.00,,,0.00,Wunderground v.1.13,2013-05-30 08:36:00,
2013-05-30 04:42:00,65.8,61.8,30.15,North,8,0.0,0.0,87,0.00,,,0.00,Wunderground v.1.13,2013-05-30 08:42:00,
2013-05-30 04:48:00,65.8,62.1,30.15,North,8,0.0,0.0,88,0.00,,,0.00,Wunderground v.1.13,2013-05-30 08:48:00,
2013-05-30 04:54:00,65.6,61.9,30.15,North,8,0.0,0.0,88,0.00,,,0.00,Wunderground v.1.13,2013-05-30 08:54:00,
2013-05-30 05:00:00,65.5,61.9,30.15,North,8,0.0,0.0,88,0.00,,,0.00,Wunderground v.1.13,2013-05-30 09:00:00,
2013-05-30 05:06:00,65.5,61.9,30.15,North,8,0.0,0.0,88,0.00,,,0.00,Wunderground v.1.13,2013-05-30 09:06:00,
2013-05-30 05:12:00,65.3,61.7,30.15,North,8,0.0,0.0,88,0.00,,,0.00,Wunderground v.1.13,2013-05-30 09:12:00,
2013-05-30 05:18:00,65.2,61.9,30.15,North,8,0.0,0.0,89,0.00,,,0.00,Wunderground v.1.13,2013-05-30 09:18:00,
2013-05-30 05:24:00,65.2,61.9,30.15,North,8,0.0,0.0,89,0.00,,,0.00,Wunderground v.1.13,2013-05-30 09:24:00,
2013-05-30 05:30:00,65.0,61.7,30.15,North,8,0.0,0.0,89,0.00,,,0.00,Wunderground v.1.13,2013-05-30 09:30:00,
2013-05-30 05:36:00,64.8,61.8,30.16,North,8,0.0,0.0,90,0.00,,,0.00,Wunderground v.1.13,2013-05-30 09:36:00,
2013-05-30 05:42:00,64.7,61.7,30.16,North,8,0.0,0.0,90,0.00,,,0.00,Wunderground v.1.13,2013-05-30 09:42:00,
2013-05-30 05:48:00,64.7,61.7,30.17,North,8,0.0,0.0,90,0.00,,,0.00,Wunderground v.1.13,2013-05-30 09:48:00,
2013-05-30 05:54:00,64.5,61.5,30.17,North,8,0.0,0.0,90,0.00,,,0.00,Wunderground v.1.13,2013-05-30 09:54:00,
2013-05-30 06:00:00,64.3,61.3,30.17,North,8,0.0,0.0,90,0.00,,,0.00,Wunderground v.1.13,2013-05-30 10:00:00,
2013-05-30 06:06:00,64.2,61.2,30.17,North,8,0.0,0.0,90,0.00,,,0.00,Wunderground v.1.13,2013-05-30 10:06:00,
2013-05-30 06:12:00,64.2,61.2,30.17,North,8,0.0,0.0,90,0.00,,,0.00,Wunderground v.1.13,2013-05-30 10:12:00,
2013-05-30 06:18:00,64.0,61.0,30.18,North,8,0.0,0.0,90,0.00,,,0.00,Wunderground v.1.13,2013-05-30 10:18:00,
2013-05-30 06:24:00,63.9,61.2,30.18,North,8,0.0,0.0,91,0.00,,,0.00,Wunderground v.1.13,2013-05-30 10:24:00,
2013-05-30 06:30:00,63.9,61.2,30.18,North,8,0.0,0.0,91,0.00,,,0.00,Wunderground v.1.13,2013-05-30 10:30:00,
2013-05-30 06:36:00,63.7,61.0,30.18,North,8,0.0,0.0,91,0.00,,,0.00,Wunderground v.1.13,2013-05-30 10:36:00,
2013-05-30 06:42:00,63.7,61.0,30.18,North,8,0.0,0.0,91,0.00,,,0.00,Wunderground v.1.13,2013-05-30 10:42:00,
2013-05-30 06:48:00,63.7,61.0,30.18,North,8,0.0,0.0,91,0.00,,,0.00,Wunderground v.1.13,2013-05-30 10:48:00,
2013-05-30 06:54:00,63.7,61.3,30.18,North,8,0.0,0.0,92,0.00,,,0.00,Wunderground v.1.13,2013-05-30 10:54:00,
2013-05-30 07:00:00,63.5,61.1,30.18,North,8,0.0,0.0,92,0.00,,,0.00,Wunderground v.1.13,2013-05-30 11:00:00,
2013-05-30 07:06:00,63.7,61.3,30.18,North,8,0.0,0.0,92,0.00,,,0.00,Wunderground v.1.13,2013-05-30 11:06:00,
2013-05-30 07:12:00,63.7,61.6,30.18,North,8,0.0,0.0,93,0.00,,,0.00,Wunderground v.1.13,2013-05-30 11:12:00,
2013-05-30 07:18:00,63.9,61.8,30.18,North,8,0.0,0.0,93,0.00,,,0.00,Wunderground v.1.13,2013-05-30 11:18:00,
2013-05-30 07:24:00,63.9,62.1,30.18,North,8,0.0,0.0,94,0.00,,,0.00,Wunderground v.1.13,2013-05-30 11:24:00,
2013-05-30 07:30:00,64.2,62.4,30.18,North,8,0.0,0.0,94,0.00,,,0.00,Wunderground v.1.13,2013-05-30 11:30:00,
2013-05-30 07:36:00,64.3,62.8,30.18,North,8,0.0,0.0,95,0.00,,,0.00,Wunderground v.1.13,2013-05-30 11:36:00,
2013-05-30 07:42:00,64.7,63.2,30.18,North,8,0.0,0.0,95,0.00,,,0.00,Wunderground v.1.13,2013-05-30 11:42:00,
2013-05-30 07:48:00,65.0,63.5,30.18,North,8,0.0,0.0,95,0.00,,,0.00,Wunderground v.1.13,2013-05-30 11:48:00,
2013-05-30 07:54:00,65.3,63.8,30.18,North,8,0.0,0.0,95,0.00,,,0.00,Wunderground v.1.13,2013-05-30 11:54:00,
2013-05-30 08:00:00,65.6,64.4,30.18,North,8,0.0,0.0,96,0.00,,,0.00,Wunderground v.1.13,2013-05-30 12:00:00,
2013-05-30 08:06:00,66.0,64.8,30.19,North,8,0.0,0.0,96,0.00,,,0.00,Wunderground v.1.13,2013-05-30 12:06:00,
2013-05-30 08:12:00,66.3,65.1,30.19,North,8,0.0,0.0,96,0.00,,,0.00,Wunderground v.1.13,2013-05-30 12:12:00,
2013-05-30 08:18:00,66.6,65.4,30.20,North,8,0.0,0.0,96,0.00,,,0.00,Wunderground v.1.13,2013-05-30 12:18:00,
2013-05-30 08:24:00,67.1,65.9,30.20,North,8,0.0,0.0,96,0.00,,,0.00,Wunderground v.1.13,2013-05-30 12:24:00,
2013-05-30 08:30:00,67.4,65.9,30.20,NNE,21,0.0,0.0,95,0.00,,,0.00,Wunderground v.1.13,2013-05-30 12:30:00,
2013-05-30 08:36:00,67.9,66.4,30.20,NE,49,0.0,0.0,95,0.00,,,0.00,Wunderground v.1.13,2013-05-30 12:36:00,
2013-05-30 08:42:00,68.3,66.5,30.20,NNE,13,0.0,0.0,94,0.00,,,0.00,Wunderground v.1.13,2013-05-30 12:42:00,
2013-05-30 08:48:00,68.8,66.4,30.20,North,10,0.0,0.0,92,0.00,,,0.00,Wunderground v.1.13,2013-05-30 12:48:00,
2013-05-30 08:54:00,69.1,66.4,30.20,NNE,23,0.0,0.0,91,0.00,,,0.00,Wunderground v.1.13,2013-05-30 12:54:00,
2013-05-30 09:00:00,69.6,65.9,30.20,SSW,198,0.0,0.0,88,0.00,,,0.00,Wunderground v.1.13,2013-05-30 13:00:00,
2013-05-30 09:06:00,70.3,66.2,30.20,North,0,0.0,0.0,87,0.00,,,0.00,Wunderground v.1.13,2013-05-30 13:06:00,
2013-05-30 09:12:00,70.6,65.9,30.20,ESE,123,0.0,0.0,85,0.00,,,0.00,Wunderground v.1.13,2013-05-30 13:12:00,
2013-05-30 09:18:00,71.1,66.0,30.20,SE,127,0.0,0.0,84,0.00,,,0.00,Wunderground v.1.13,2013-05-30 13:18:00,
2013-05-30 09:24:00,71.5,65.7,30.20,ESE,103,0.0,0.0,82,0.00,,,0.00,Wunderground v.1.13,2013-05-30 13:24:00,
2013-05-30 09:30:00,72.0,65.8,30.20,WNW,299,0.0,0.0,81,0.00,,,0.00,Wunderground v.1.13,2013-05-30 13:30:00,
2013-05-30 09:36:00,73.3,65.7,30.20,NW,308,0.0,0.0,77,0.00,,,0.00,Wunderground v.1.13,2013-05-30 13:36:00,
2013-05-30 09:42:00,74.0,65.6,30.20,NW,308,0.0,0.0,75,0.00,,,0.00,Wunderground v.1.13,2013-05-30 13:42:00,
2013-05-30 09:48:00,74.4,66.0,30.19,NW,308,0.0,0.0,75,0.00,,,0.00,Wunderground v.1.13,2013-05-30 13:48:00,
2013-05-30 09:54:00,74.7,65.5,30.19,NW,308,0.0,0.0,73,0.00,,,0.00,Wunderground v.1.13,2013-05-30 13:54:00,
2013-05-30 10:00:00,75.1,66.2,30.19,NW,308,0.0,0.0,74,0.00,,,0.00,Wunderground v.1.13,2013-05-30 14:00:00,
2013-05-30 10:06:00,75.6,66.3,30.19,NW,308,0.0,0.0,73,0.00,,,0.00,Wunderground v.1.13,2013-05-30 14:06:00,
2013-05-30 10:12:00,75.8,65.3,30.19,NW,308,0.0,0.0,70,0.00,,,0.00,Wunderground v.1.13,2013-05-30 14:12:00,
2013-05-30 10:18:00,76.1,66.4,30.19,NW,308,0.0,0.0,72,0.00,,,0.00,Wunderground v.1.13,2013-05-30 14:18:00,
2013-05-30 10:24:00,76.3,65.8,30.19,NW,308,0.0,0.0,70,0.00,,,0.00,Wunderground v.1.13,2013-05-30 14:24:00,
2013-05-30 10:30:00,77.2,66.7,30.19,NW,309,0.0,0.0,70,0.00,,,0.00,Wunderground v.1.13,2013-05-30 14:30:00,
2013-05-30 10:36:00,77.2,66.7,30.20,NW,308,0.0,0.0,70,0.00,,,0.00,Wunderground v.1.13,2013-05-30 14:36:00,
2013-05-30 10:42:00,78.1,66.7,30.20,NW,305,0.0,0.0,68,0.00,,,0.00,Wunderground v.1.13,2013-05-30 14:42:00,
2013-05-30 10:48:00,77.9,65.6,30.20,NW,305,0.0,0.0,66,0.00,,,0.00,Wunderground v.1.13,2013-05-30 14:48:00,
2013-05-30 10:54:00,78.3,66.0,30.20,NW,305,0.0,0.0,66,0.00,,,0.00,Wunderground v.1.13,2013-05-30 14:54:00,
2013-05-30 11:00:00,78.5,67.1,30.20,NW,305,0.0,0.0,68,0.00,,,0.00,Wunderground v.1.13,2013-05-30 15:00:00,
2013-05-30 11:06:00,79.2,66.9,30.20,NW,305,0.0,0.0,66,0.00,,,0.00,Wunderground v.1.13,2013-05-30 15:06:00,
2013-05-30 11:12:00,79.4,67.9,30.20,NW,308,0.0,0.0,68,0.00,,,0.00,Wunderground v.1.13,2013-05-30 15:12:00,
2013-05-30 11:18:00,79.8,67.9,30.20,NW,308,0.0,0.0,67,0.00,,,0.00,Wunderground v.1.13,2013-05-30 15:18:00,
2013-05-30 11:24:00,79.2,66.9,30.20,NW,308,0.0,0.0,66,0.00,,,0.00,Wunderground v.1.13,2013-05-30 15:24:00,
2013-05-30 11:30:00,79.4,67.5,30.20,NW,308,0.0,0.0,67,0.00,,,0.00,Wunderground v.1.13,2013-05-30 15:30:00,
2013-05-30 11:36:00,79.0,66.7,30.20,NW,308,0.0,0.0,66,0.00,,,0.00,Wunderground v.1.13,2013-05-30 15:36:00,
2013-05-30 11:42:00,78.8,67.3,30.20,NW,308,0.0,0.0,68,0.00,,,0.00,Wunderground v.1.13,2013-05-30 15:42:00,
2013-05-30 11:48:00,78.1,65.8,30.19,NW,308,0.0,0.0,66,0.00,,,0.00,Wunderground v.1.13,2013-05-30 15:48:00,
2013-05-30 11:54:00,79.4,66.6,30.19,NW,308,0.0,0.0,65,0.00,,,0.00,Wunderground v.1.13,2013-05-30 15:54:00,
2013-05-30 12:00:00,79.0,66.7,30.19,NW,308,0.0,0.0,66,0.00,,,0.00,Wunderground v.1.13,2013-05-30 16:00:00,
2013-05-30 12:06:00,79.8,67.0,30.18,NNE,13,0.0,0.0,65,0.00,,,0.00,Wunderground v.1.13,2013-05-30 16:06:00,
2013-05-30 12:12:00,79.2,66.4,30.18,North,8,0.0,0.0,65,0.00,,,0.00,Wunderground v.1.13,2013-05-30 16:12:00,
2013-05-30 12:18:00,79.6,67.7,30.18,North,8,0.0,0.0,67,0.00,,,0.00,Wunderground v.1.13,2013-05-30 16:18:00,
2013-05-30 12:24:00,81.2,66.9,30.18,North,357,0.0,0.0,62,0.00,,,0.00,Wunderground v.1.13,2013-05-30 16:24:00,
2013-05-30 12:30:00,82.2,66.4,30.18,North,357,0.0,0.0,59,0.00,,,0.00,Wunderground v.1.13,2013-05-30 16:30:00,
2013-05-30 12:36:00,79.8,66.5,30.18,North,357,0.0,0.0,64,0.00,,,0.00,Wunderground v.1.13,2013-05-30 16:36:00,
2013-05-30 12:42:00,80.9,68.0,30.18,North,357,0.0,0.0,65,0.00,,,0.00,Wunderground v.1.13,2013-05-30 16:42:00,
2013-05-30 12:48:00,81.4,66.2,30.18,North,359,0.0,0.0,60,0.00,,,0.00,Wunderground v.1.13,2013-05-30 16:48:00,
2013-05-30 12:54:00,82.0,65.8,30.18,North,357,0.0,0.0,58,0.00,,,0.00,Wunderground v.1.13,2013-05-30 16:54:00,
2013-05-30 13:00:00,82.0,65.8,30.18,North,357,0.0,0.0,58,0.00,,,0.00,Wunderground v.1.13,2013-05-30 17:00:00,
2013-05-30 13:06:00,83.0,66.2,30.17,North,357,0.0,0.0,57,0.00,,,0.00,Wunderground v.1.13,2013-05-30 17:06:00,
2013-05-30 13:12:00,83.0,65.7,30.17,North,357,0.0,1.0,56,0.00,,,0.00,Wunderground v.1.13,2013-05-30 17:12:00,
2013-05-30 13:18:00,82.6,63.2,30.16,North,357,0.0,0.0,52,0.00,,,0.00,Wunderground v.1.13,2013-05-30 17:18:00,
2013-05-30 13:24:00,83.2,65.9,30.16,North,357,0.0,0.0,56,0.00,,,0.00,Wunderground v.1.13,2013-05-30 17:24:00,
2013-05-30 13:30:00,82.8,66.0,30.16,North,357,0.0,0.0,57,0.00,,,0.00,Wunderground v.1.13,2013-05-30 17:30:00,
2013-05-30 13:36:00,82.0,63.2,30.16,North,357,0.0,0.0,53,0.00,,,0.00,Wunderground v.1.13,2013-05-30 17:36:00,
2013-05-30 13:42:00,82.8,64.5,30.16,North,357,0.0,0.0,54,0.00,,,0.00,Wunderground v.1.13,2013-05-30 17:42:00,
2013-05-30 13:48:00,82.8,63.4,30.15,North,359,0.0,0.0,52,0.00,,,0.00,Wunderground v.1.13,2013-05-30 17:48:00,
2013-05-30 13:54:00,83.8,63.2,30.15,North,357,0.0,0.0,50,0.00,,,0.00,Wunderground v.1.13,2013-05-30 17:54:00,
2013-05-30 14:00:00,83.6,64.1,30.15,North,357,0.0,0.0,52,0.00,,,0.00,Wunderground v.1.13,2013-05-30 18:00:00,
2013-05-30 14:06:00,84.0,64.5,30.15,North,357,0.0,0.0,52,0.00,,,0.00,Wunderground v.1.13,2013-05-30 18:06:00,
2013-05-30 14:12:00,84.0,65.0,30.15,North,357,0.0,0.0,53,0.00,,,0.00,Wunderground v.1.13,2013-05-30 18:12:00,
2013-05-30 14:18:00,83.8,62.6,30.15,North,357,0.0,0.0,49,0.00,,,0.00,Wunderground v.1.13,2013-05-30 18:18:00,
2013-05-30 14:24:00,84.3,60.6,30.15,NNW,344,0.0,0.0,45,0.00,,,0.00,Wunderground v.1.13,2013-05-30 18:24:00,
2013-05-30 14:30:00,83.8,62.0,30.15,NNW,343,0.0,0.0,48,0.00,,,0.00,Wunderground v.1.13,2013-05-30 18:30:00,
2013-05-30 14:36:00,84.0,62.2,30.14,NNW,343,0.0,0.0,48,0.00,,,0.00,Wunderground v.1.13,2013-05-30 18:36:00,
2013-05-30 14:42:00,83.8,60.2,30.14,NNW,343,0.0,0.0,45,0.00,,,0.00,Wunderground v.1.13,2013-05-30 18:42:00,
2013-05-30 14:48:00,83.4,62.8,30.14,NNW,343,0.0,0.0,50,0.00,,,0.00,Wunderground v.1.13,2013-05-30 18:48:00,
2013-05-30 14:54:00,83.4,61.7,30.14,NNW,343,0.0,0.0,48,0.00,,,0.00,Wunderground v.1.13,2013-05-30 18:54:00,
2013-05-30 15:00:00,83.8,63.7,30.14,NNW,344,0.0,0.0,51,0.00,,,0.00,Wunderground v.1.13,2013-05-30 19:00:00,
2013-05-30 15:06:00,84.0,63.4,30.13,NNW,343,0.0,0.0,50,0.00,,,0.00,Wunderground v.1.13,2013-05-30 19:06:00,
2013-05-30 15:12:00,84.0,62.8,30.13,NNW,344,0.0,0.0,49,0.00,,,0.00,Wunderground v.1.13,2013-05-30 19:12:00,
2013-05-30 15:18:00,84.0,62.8,30.13,NNW,344,0.0,0.0,49,0.00,,,0.00,Wunderground v.1.13,2013-05-30 19:18:00,
2013-05-30 15:24:00,83.6,63.0,30.13,NNW,343,0.0,0.0,50,0.00,,,0.00,Wunderground v.1.13,2013-05-30 19:24:00,
2013-05-30 15:30:00,83.6,62.4,30.13,NNW,344,0.0,0.0,49,0.00,,,0.00,Wunderground v.1.13,2013-05-30 19:30:00,
2013-05-30 15:36:00,83.4,63.4,30.12,NE,38,0.0,0.0,51,0.00,,,0.00,Wunderground v.1.13,2013-05-30 19:36:00,
2013-05-30 15:42:00,84.0,63.4,30.12,NE,38,0.0,0.0,50,0.00,,,0.00,Wunderground v.1.13,2013-05-30 19:42:00,
2013-05-30 15:48:00,83.6,64.1,30.12,NE,37,0.0,0.0,52,0.00,,,0.00,Wunderground v.1.13,2013-05-30 19:48:00,
2013-05-30 15:54:00,83.4,63.4,30.12,NE,35,0.0,0.0,51,0.00,,,0.00,Wunderground v.1.13,2013-05-30 19:54:00,
2013-05-30 16:00:00,83.2,63.2,30.12,NE,38,0.0,0.0,51,0.00,,,0.00,Wunderground v.1.13,2013-05-30 20:00:00,
2013-05-30 16:06:00,83.2,62.1,30.12,NE,38,0.0,0.0,49,0.00,,,0.00,Wunderground v.1.13,2013-05-30 20:06:00,
2013-05-30 16:12:00,83.2,62.6,30.12,NNE,23,0.0,0.0,50,0.00,,,0.00,Wunderground v.1.13,2013-05-30 20:12:00,
2013-05-30 16:18:00,83.2,63.2,30.12,North,3,0.0,0.0,51,0.00,,,0.00,Wunderground v.1.13,2013-05-30 20:18:00,
2013-05-30 16:24:00,83.6,63.0,30.12,North,3,0.0,0.0,50,0.00,,,0.00,Wunderground v.1.13,2013-05-30 20:24:00,
2013-05-30 16:30:00,83.4,65.5,30.12,North,356,0.0,0.0,55,0.00,,,0.00,Wunderground v.1.13,2013-05-30 20:30:00,
2013-05-30 16:36:00,83.0,64.1,30.11,North,356,0.0,0.0,53,0.00,,,0.00,Wunderground v.1.13,2013-05-30 20:36:00,
2013-05-30 16:42:00,82.8,62.3,30.11,North,356,0.0,0.0,50,0.00,,,0.00,Wunderground v.1.13,2013-05-30 20:42:00,
2013-05-30 16:48:00,82.6,64.3,30.11,North,356,0.0,0.0,54,0.00,,,0.00,Wunderground v.1.13,2013-05-30 20:48:00,
2013-05-30 16:54:00,82.6,62.6,30.11,North,356,0.0,1.0,51,0.00,,,0.00,Wunderground v.1.13,2013-05-30 20:54:00,
2013-05-30 17:00:00,82.8,62.3,30.11,North,356,0.0,0.0,50,0.00,,,0.00,Wunderground v.1.13,2013-05-30 21:00:00,
2013-05-30 17:06:00,83.0,63.6,30.11,North,356,0.0,0.0,52,0.00,,,0.00,Wunderground v.1.13,2013-05-30 21:06:00,
2013-05-30 17:12:00,82.6,63.2,30.11,North,356,0.0,0.0,52,0.00,,,0.00,Wunderground v.1.13,2013-05-30 21:12:00,
2013-05-30 17:18:00,83.0,61.9,30.10,North,356,0.0,0.0,49,0.00,,,0.00,Wunderground v.1.13,2013-05-30 21:18:00,
2013-05-30 17:24:00,83.0,64.1,30.10,North,356,0.0,2.0,53,0.00,,,0.00,Wunderground v.1.13,2013-05-30 21:24:00,
2013-05-30 17:30:00,82.6,62.6,30.10,North,357,0.0,0.0,51,0.00,,,0.00,Wunderground v.1.13,2013-05-30 21:30:00,
2013-05-30 17:36:00,82.4,61.3,30.10,North,357,0.0,0.0,49,0.00,,,0.00,Wunderground v.1.13,2013-05-30 21:36:00,
2013-05-30 17:42:00,82.6,61.5,30.10,North,357,0.0,0.0,49,0.00,,,0.00,Wunderground v.1.13,2013-05-30 21:42:00,
2013-05-30 17:48:00,82.6,64.3,30.10,North,357,0.0,0.0,54,0.00,,,0.00,Wunderground v.1.13,2013-05-30 21:48:00,
2013-05-30 17:54:00,82.4,63.0,30.10,North,357,0.0,0.0,52,0.00,,,0.00,Wunderground v.1.13,2013-05-30 21:54:00,
2013-05-30 18:00:00,82.4,63.5,30.10,North,357,0.0,0.0,53,0.00,,,0.00,Wunderground v.1.13,2013-05-30 22:00:00,
2013-05-30 18:06:00,82.4,62.5,30.10,North,359,0.0,0.0,51,0.00,,,0.00,Wunderground v.1.13,2013-05-30 22:06:00,
2013-05-30 18:12:00,82.4,63.0,30.10,North,357,0.0,0.0,52,0.00,,,0.00,Wunderground v.1.13,2013-05-30 22:12:00,
2013-05-30 18:18:00,82.0,62.1,30.10,North,357,0.0,0.0,51,0.00,,,0.00,Wunderground v.1.13,2013-05-30 22:18:00,
2013-05-30 18:24:00,82.0,63.2,30.10,North,357,0.0,0.0,53,0.00,,,0.00,Wunderground v.1.13,2013-05-30 22:24:00,
2013-05-30 18:30:00,82.0,63.7,30.10,North,359,0.0,0.0,54,0.00,,,0.00,Wunderground v.1.13,2013-05-30 22:30:00,
2013-05-30 18:36:00,82.2,62.3,30.10,North,357,0.0,0.0,51,0.00,,,0.00,Wunderground v.1.13,2013-05-30 22:36:00,
2013-05-30 18:42:00,81.8,63.5,30.10,North,357,0.0,0.0,54,0.00,,,0.00,Wunderground v.1.13,2013-05-30 22:42:00,
2013-05-30 18:48:00,81.6,63.3,30.10,North,359,0.0,0.0,54,0.00,,,0.00,Wunderground v.1.13,2013-05-30 22:48:00,
2013-05-30 18:54:00,81.2,64.0,30.10,North,357,0.0,0.0,56,0.00,,,0.00,Wunderground v.1.13,2013-05-30 22:54:00,
2013-05-30 19:00:00,80.9,64.2,30.10,North,357,0.0,0.0,57,0.00,,,0.00,Wunderground v.1.13,2013-05-30 23:00:00,
2013-05-30 19:06:00,81.1,64.4,30.11,North,359,0.0,0.0,57,0.00,,,0.00,Wunderground v.1.13,2013-05-30 23:06:00,
2013-05-30 19:12:00,80.9,64.2,30.11,North,359,0.0,0.0,57,0.00,,,0.00,Wunderground v.1.13,2013-05-30 23:12:00,
2013-05-30 19:18:00,80.5,63.9,30.11,North,357,0.0,0.0,57,0.00,,,0.00,Wunderground v.1.13,2013-05-30 23:18:00,
2013-05-30 19:24:00,79.9,64.3,30.11,North,357,0.0,0.0,59,0.00,,,0.00,Wunderground v.1.13,2013-05-30 23:24:00,
2013-05-30 19:30:00,79.6,64.0,30.11,North,359,0.0,0.0,59,0.00,,,0.00,Wunderground v.1.13,2013-05-30 23:30:00,
2013-05-30 19:36:00,79.2,65.1,30.10,North,359,0.0,0.0,62,0.00,,,0.00,Wunderground v.1.13,2013-05-30 23:36:00,
2013-05-30 19:42:00,78.8,64.2,30.10,North,359,0.0,0.0,61,0.00,,,0.00,Wunderground v.1.13,2013-05-30 23:42:00,
2013-05-30 19:48:00,78.1,64.9,30.11,North,359,0.0,0.0,64,0.00,,,0.00,Wunderground v.1.13,2013-05-30 23:48:00,
2013-05-30 19:54:00,77.7,65.0,30.11,North,357,0.0,0.0,65,0.00,,,0.00,Wunderground v.1.13,2013-05-30 23:54:00,
2013-05-30 20:00:00,77.2,65.8,30.11,North,357,0.0,0.0,68,0.00,,,0.00,Wunderground v.1.13,2013-05-31 00:00:00,
2013-05-30 20:06:00,76.7,65.3,30.11,North,357,0.0,0.0,68,0.00,,,0.00,Wunderground v.1.13,2013-05-31 00:06:00,
2013-05-30 20:12:00,76.3,65.8,30.11,North,357,0.0,0.0,70,0.00,,,0.00,Wunderground v.1.13,2013-05-31 00:12:00,
2013-05-30 20:18:00,75.6,65.5,30.10,North,359,0.0,0.0,71,0.00,,,0.00,Wunderground v.1.13,2013-05-31 00:18:00,
2013-05-30 20:24:00,75.1,65.9,30.10,North,357,0.0,0.0,73,0.00,,,0.00,Wunderground v.1.13,2013-05-31 00:24:00,
2013-05-30 20:30:00,74.6,66.1,30.10,North,357,0.0,0.0,75,0.00,,,0.00,Wunderground v.1.13,2013-05-31 00:30:00,
2013-05-30 20:36:00,74.0,66.0,30.10,North,359,0.0,0.0,76,0.00,,,0.00,Wunderground v.1.13,2013-05-31 00:36:00,
2013-05-30 20:42:00,73.7,65.7,30.10,North,357,0.0,0.0,76,0.00,,,0.00,Wunderground v.1.13,2013-05-31 00:42:00,
2013-05-30 20:48:00,73.2,65.2,30.10,North,357,0.0,0.0,76,0.00,,,0.00,Wunderground v.1.13,2013-05-31 00:48:00,
2013-05-30 20:54:00,73.0,65.4,30.10,North,359,0.0,0.0,77,0.00,,,0.00,Wunderground v.1.13,2013-05-31 00:54:00,
2013-05-30 21:00:00,72.5,65.6,30.10,North,359,0.0,0.0,79,0.00,,,0.00,Wunderground v.1.13,2013-05-31 01:00:00,
2013-05-30 21:06:00,72.1,65.9,30.10,North,357,0.0,0.0,81,0.00,,,0.00,Wunderground v.1.13,2013-05-31 01:06:00,
2013-05-30 21:12:00,71.8,65.7,30.10,North,357,0.0,0.0,81,0.00,,,0.00,Wunderground v.1.13,2013-05-31 01:12:00,
2013-05-30 21:18:00,71.5,65.4,30.10,North,359,0.0,0.0,81,0.00,,,0.00,Wunderground v.1.13,2013-05-31 01:18:00,
2013-05-30 21:24:00,71.3,65.5,30.10,North,359,0.0,0.0,82,0.00,,,0.00,Wunderground v.1.13,2013-05-31 01:24:00,
2013-05-30 21:30:00,70.9,65.5,30.10,North,357,0.0,0.0,83,0.00,,,0.00,Wunderground v.1.13,2013-05-31 01:30:00,
2013-05-30 21:36:00,70.8,65.7,30.10,North,357,0.0,0.0,84,0.00,,,0.00,Wunderground v.1.13,2013-05-31 01:36:00,
2013-05-30 21:42:00,70.4,65.7,30.10,North,357,0.0,0.0,85,0.00,,,0.00,Wunderground v.1.13,2013-05-31 01:42:00,
2013-05-30 21:48:00,70.3,65.6,30.11,North,357,0.0,0.0,85,0.00,,,0.00,Wunderground v.1.13,2013-05-31 01:48:00,
2013-05-30 21:54:00,70.1,65.7,30.11,North,359,0.0,0.0,86,0.00,,,0.00,Wunderground v.1.13,2013-05-31 01:54:00,
2013-05-30 22:00:00,69.9,65.5,30.11,North,359,0.0,0.0,86,0.00,,,0.00,Wunderground v.1.13,2013-05-31 02:00:00,
2013-05-30 22:06:00,69.6,65.6,30.12,North,357,0.0,0.0,87,0.00,,,0.00,Wunderground v.1.13,2013-05-31 02:06:00,
2013-05-30 22:12:00,69.6,65.9,30.12,North,357,0.0,0.0,88,0.00,,,0.00,Wunderground v.1.13,2013-05-31 02:12:00,
2013-05-30 22:18:00,69.4,65.7,30.11,North,359,0.0,0.0,88,0.00,,,0.00,Wunderground v.1.13,2013-05-31 02:18:00,
2013-05-30 22:24:00,69.1,65.7,30.11,North,357,0.0,0.0,89,0.00,,,0.00,Wunderground v.1.13,2013-05-31 02:24:00,
2013-05-30 22:30:00,69.1,65.7,30.11,North,357,0.0,0.0,89,0.00,,,0.00,Wunderground v.1.13,2013-05-31 02:30:00,
2013-05-30 22:36:00,68.9,65.8,30.11,North,357,0.0,0.0,90,0.00,,,0.00,Wunderground v.1.13,2013-05-31 02:36:00,
2013-05-30 22:42:00,68.8,65.7,30.11,North,357,0.0,0.0,90,0.00,,,0.00,Wunderground v.1.13,2013-05-31 02:42:00,
2013-05-30 22:48:00,68.6,65.5,30.11,North,357,0.0,0.0,90,0.00,,,0.00,Wunderground v.1.13,2013-05-31 02:48:00,
2013-05-30 22:54:00,68.4,65.7,30.11,North,357,0.0,0.0,91,0.00,,,0.00,Wunderground v.1.13,2013-05-31 02:54:00,
2013-05-30 23:00:00,68.3,65.9,30.11,North,357,0.0,0.0,92,0.00,,,0.00,Wunderground v.1.13,2013-05-31 03:00:00,
2013-05-30 23:06:00,68.3,65.9,30.12,North,359,0.0,0.0,92,0.00,,,0.00,Wunderground v.1.13,2013-05-31 03:06:00,
2013-05-30 23:12:00,68.4,66.0,30.12,North,359,0.0,0.0,92,0.00,,,0.00,Wunderground v.1.13,2013-05-31 03:12:00,
2013-05-30 23:18:00,68.4,66.0,30.12,North,357,0.0,0.0,92,0.00,,,0.00,Wunderground v.1.13,2013-05-31 03:18:00,
2013-05-30 23:24:00,68.4,65.7,30.12,North,357,0.0,0.0,91,0.00,,,0.00,Wunderground v.1.13,2013-05-31 03:24:00,
2013-05-30 23:30:00,68.4,65.7,30.12,North,359,0.0,0.0,91,0.00,,,0.00,Wunderground v.1.13,2013-05-31 03:30:00,
2013-05-30 23:36:00,68.3,65.6,30.12,North,359,0.0,0.0,91,0.00,,,0.00,Wunderground v.1.13,2013-05-31 03:36:00,
2013-05-30 23:42:00,68.1,65.4,30.12,North,357,0.0,0.0,91,0.00,,,0.00,Wunderground v.1.13,2013-05-31 03:42:00,
2013-05-30 23:48:00,67.9,65.5,30.12,North,359,0.0,0.0,92,0.00,,,0.00,Wunderground v.1.13,2013-05-31 03:48:00,
2013-05-30 23:54:00,67.8,65.4,30.12,North,359,0.0,0.0,92,0.00,,,0.00,Wunderground v.1.13,2013-05-31 03:54:00,